Location: U-46 Planetarium
(42.0300°N, 88.2740°W)
Time: 21:05:13
(UTC-05:00)

Daily predictions for brighter satellites

Satellite Brightness Start Highest point End
(mag) Time Altitude Azimuth Time Altitude Azimuth Time Altitude Azimuth
Cosmos 2056 Rocket 3.7 18:30:01 10° NNW 18:35:16 54° ENE 18:40:23 10° SE
Cosmos 1461 2.8 18:31:56 10° SSW 18:35:55 80° ESE 18:40:08 10° NE
Cosmos 2082 Rocket 4.4 18:31:38 10° WSW 18:36:10 24° NW 18:40:44 10° N
Cosmos 2360 Rocket 3.0 18:32:39 10° N 18:37:38 31° NE 18:42:36 10° ESE
Cosmos 2058 3.9 18:35:33 10° NNE 18:39:06 26° ENE 18:42:38 10° SE
Cosmos 1980 Rocket 3.9 18:33:55 10° NW 18:39:10 39° WSW 18:44:24 10° S
RESURS DK-1 3.7 18:40:01 10° N 18:43:13 21° NE 18:46:25 10° ESE
COSMO-SKYMED 1 2.8 18:39:09 10° NNE 18:43:23 49° E 18:47:35 10° S
Cosmos 2322 Rocket 2.2 18:38:21 10° NNW 18:43:59 78° ENE 18:49:36 10° SSE
Cosmos 1626 2.6 18:42:28 10° N 18:46:00 38° ENE 18:49:29 10° SSE
deb Kosmos-1763 4.1 18:44:23 10° SSW 18:48:12 83° ESE 18:52:03 10° NNE
Cosmos 2218 Rocket 3.9 18:42:34 10° S 18:48:40 68° E 18:54:45 10° NNE
Aureole 1 Rocket 3.8 18:43:47 10° SSW 18:50:40 78° ESE 18:55:53 10° NNE
Meteor 1-11 4.3 18:45:05 10° N 18:50:52 67° ENE 18:56:33 10° SSE
BREEZE-M DEB (TANK) 2.3 18:49:16 10° SSW 18:51:12 26° SE 18:52:35 14° E
Lacrosse 5 rocket 3.3 18:48:20 10° W 18:52:13 28° NNW 18:55:57 10° NNE
Cosmos 1408 Rocket 3.8 18:47:47 10° N 18:52:13 77° W 18:56:40 10° S
SL-8 R/B 4.5 18:48:05 10° SSW 18:52:26 35° SE 18:56:27 12° ENE
Cosmos 1452 Rocket 4.2 18:48:21 10° N 18:53:04 32° ENE 18:57:45 10° SE
Meteor 2-15 Rocket 4.4 18:47:02 10° N 18:53:10 86° E 18:59:16 10° S
EO 1 Del DPAF 3.2 18:50:01 10° NNE 18:53:53 85° E 18:57:43 10° SSW
USA 267 4.1 18:50:21 10° ENE 18:55:52 29° SE 19:01:22 10° S
SJ-6B 4.4 18:55:12 12° E 18:56:50 15° ENE 18:59:05 10° NNE
Cosmos 1328 4.0 18:53:35 10° N 18:57:35 76° W 19:01:31 10° S
Atlas Centaur 2 3.6 18:55:44 10° SW 18:59:37 23° S 19:04:13 10° ESE
Cosmos 1727 Rocket 4.1 18:53:44 10° N 19:00:03 61° E 19:06:18 10° SSE
DELTA 2 R/B (1) 3.7 18:55:38 10° W 19:01:11 70° S 19:05:56 14° E
Cosmos 2322 4.2 18:57:48 10° N 19:03:10 39° ENE 19:08:28 10° SE
MONITOR-E 4.2 19:01:35 10° S 19:04:39 84° WSW 19:07:45 10° NNW
Meteor 1-16 Rocket 4.4 19:00:47 10° SSW 19:06:04 73° W 19:11:25 10° N
BREEZE M DEB (TANK) 3.6 19:03:19 10° WNW 19:08:34 30° N 19:10:26 15° NE
YAOGAN 1 3.5 19:04:43 10° S 19:08:55 51° W 19:13:10 10° NNW
ALOS 2.3 19:05:44 10° SSE 19:10:20 61° ENE 19:14:57 10° N
CZ-4C R/B 3.5 19:09:08 10° SE 19:12:12 16° ESE 19:12:17 16° ESE
GP-B 3.2 19:09:26 10° N 19:13:52 79° W 19:18:18 10° S
FENGYUN 3A 3.6 19:09:40 10° SSE 19:15:00 67° ENE 19:20:23 10° N
Cosmos 1703 3.1 19:11:53 10° N 19:15:49 71° E 19:19:43 10° SSE
CZ-4 R/B 3.8 19:12:45 10° SSW 19:16:26 29° W 19:20:06 10° NW
Abrixas rocket 3.0 19:13:26 10° W 19:16:37 44° NNW 19:18:42 19° NE
Cosmos 1400 Rocket 3.0 19:21:01 10° NNW 19:25:04 73° W 19:29:03 10° S
Tiangong 1 3.3 19:26:16 10° WSW 19:28:06 16° SSW 19:29:46 11° S
Cosmos 2219 Rocket 3.3 19:23:47 10° N 19:28:10 23° NE 19:29:17 21° ENE
USA 234 4.3 19:28:01 17° ENE 19:31:50 30° NNE 19:37:22 10° NW
Thor Agena Rocket 3.5 19:26:56 10° NNE 19:32:01 61° ESE 19:37:00 10° S
Cosmos 1048 Rocket 4.4 19:30:31 10° SSE 19:35:11 36° ESE 19:38:42 16° NE
GRACE-2 4.3 19:33:18 10° S 19:35:49 56° W 19:38:23 10° N
SL-16 R/B 3.7 19:32:13 10° NW 19:37:25 38° WSW 19:42:36 10° S
Cosmos 1908 3.1 19:34:47 10° S 19:38:41 75° E 19:42:36 10° NNE
Cosmos 2237 4.2 19:33:15 10° NNW 19:38:56 60° ENE 19:42:58 19° SE
Cosmos 1420 Rocket 4.0 19:35:20 10° NNW 19:40:37 61° ENE 19:44:26 19° SE
Iridium 4 Rocket 3.6 19:35:39 10° S 19:40:58 67° E 19:46:44 10° N
Cosmos 2151 3.6 19:37:32 10° NNW 19:41:45 58° W 19:45:55 10° S
Envisat 3.9 19:46:16 28° ENE 19:46:16 28° ENE 19:50:11 10° N
H-2A R/B 2.6 19:43:00 15° SSE 19:46:10 75° ENE 19:50:04 10° N
Delta 2 Rocket 4.3 19:44:49 10° SW 19:47:45 24° S 19:47:45 24° S
Resurs 01 Rocket 2.8 19:49:59 26° NE 19:49:59 26° NE 19:52:38 10° N
Cosmos 44 4.1 19:45:10 10° S 19:47:53 28° SSE 19:47:53 28° SSE
GENESIS II 4.1 19:46:34 10° SSW 19:50:32 81° ESE 19:51:47 42° NE
Cosmos 2237 Rocket 3.6 19:51:57 10° N 19:55:40 21° NE 19:55:40 21° NE
FREGAT/IRIS 3.1 19:56:03 47° SSW 19:56:38 58° W 19:59:36 10° NNW
Cosmos 2221 2.5 19:53:30 10° S 19:57:49 82° W 20:02:11 10° N
Cosmos 44 Rocket 3.8 19:55:12 10° S 19:58:42 38° SSE 19:58:42 38° SSE
CZ-2D R/B 4.5 20:01:43 30° NNE 20:01:43 30° NNE 20:03:54 10° N
SL-16 R/B 4.3 20:01:49 10° NNE 20:02:44 11° NNE 20:02:44 11° NNE
Cosmos 1535 Rocket 4.3 19:58:30 10° S 20:04:36 71° E 20:10:41 10° NNE
Cosmos 1315 Rocket 3.8 20:02:03 10° NNW 20:05:59 48° W 20:09:55 10° S
Cosmos 921 Rocket 3.6 20:04:24 10° NNW 20:08:47 57° WSW 20:11:50 19° S
Cosmos 158 Rocket 3.8 20:03:49 10° SSW 20:08:49 90° ESE 20:14:01 10° NNE
HJ-1C 4.2 20:10:02 48° NW 20:10:02 48° NW 20:12:39 10° NNW
CSL-04 DEB 4.4 20:08:24 49° S 20:09:28 81° WSW 20:13:34 10° NNW
BREEZE-M DEB (TANK) 4.3 20:09:11 10° WSW 20:09:32 11° SW 20:09:32 11° SW
COSMOS 2428 2.6 20:09:17 10° NNW 20:15:00 79° ENE 20:16:20 54° SE
Cosmos 1269 Rocket 3.8 20:10:06 10° S 20:15:20 74° ESE 20:16:59 44° NE
Cosmos 2333 Rocket 2.7 20:13:07 10° NNW 20:18:02 44° NE 20:18:02 44° NE
RESURS DK-1 3.8 20:17:35 10° NW 20:21:23 36° WSW 20:23:04 25° SSW
Cosmos 2098 Rocket 3.5 20:17:35 10° SSW 20:21:39 66° W 20:26:55 10° N
Cosmos 2360 Rocket 3.4 20:16:27 10° NW 20:21:43 41° WSW 20:26:58 10° S
Cosmos 2219 3.0 20:21:02 10° SSW 20:26:47 79° ESE 20:27:40 64° NE
MOS 1-B Rocket 3.7 20:25:31 53° SSE 20:26:57 86° ENE 20:32:55 10° NNW
SJ-6B 4.1 20:30:52 35° WSW 20:31:12 36° W 20:34:41 10° NNW
Lacrosse 5 rocket 4.1 20:31:12 10° NNW 20:32:41 11° N 20:33:24 11° N
NOSS 0 Rocket 4.2 20:27:12 10° NNW 20:32:33 52° NE 20:32:33 52° NE
SL-8 R/B 4.1 20:30:02 10° WSW 20:34:26 62° NW 20:34:26 62° NW
Cosmos 1821 Rocket 4.4 20:30:30 10° SSW 20:36:32 59° W 20:42:42 10° N
Sich 1 4.2 20:32:29 10° NNW 20:35:07 36° NNW 20:35:07 36° NNW
USA 267 3.2 20:37:01 45° NE 20:39:17 80° NW 20:45:48 10° SW
Cosmos 1934 Rocket 4.3 20:39:29 10° SSW 20:45:47 67° W 20:52:10 10° N
DELTA 2 R/B (1) 4.2 20:41:59 10° W 20:46:42 49° SW 20:46:42 49° SW
Atlas Centaur 2 3.8 20:43:29 10° WSW 20:47:12 24° SSW 20:47:12 24° SSW
Spot 2 Rocket 4.3 20:51:35 45° NNW 20:51:35 45° NNW 20:55:07 10° NNW
Gbstr 26 Del rocket 4.1 20:48:36 10° NW 20:53:03 61° NNW 20:53:03 61° NNW
CZ-4C R/B 3.2 20:54:34 10° SW 20:57:35 36° SW 20:57:35 36° SW
Cosmos 2219 Rocket 3.1 21:07:00 10° NNW 21:11:01 44° WNW 21:11:01 44° WNW
BREEZE-M DEB (TANK) 3.9 21:01:21 10° WNW 21:11:54 62° WNW 21:11:54 62° WNW
USA 234 3.6 21:15:23 56° NNW 21:15:23 56° NNW 21:20:39 10° NW
Resurs 01 Rocket 4.3 21:27:35 17° NW 21:27:35 17° NW 21:28:54 10° NW
Cosmos 2237 Rocket 4.1 21:35:10 10° NNW 21:37:31 25° NW 21:37:31 25° NW
Cosmos 2333 Rocket 4.5 21:57:52 10° NW 22:00:04 20° WNW 22:00:04 20° WNW
